RH
5 5 6 9 9 8 8 8 7 7 8 8 8 7 8 8 8 8 8 8 9 10 10 11 11 11 12 13 12 12 10 8 8 6 6 6 6 6 6 5 5 10 12 8
10 11 10 9 8 8 9 8 8 8 9 8 9 9 8 9 10 10 10 10 10 12 14 16 16 16 16 16 16 16 16 15 14 12 11 10 10 9 9 8 8 9 7 10
10 10 10 9 9 9 10 9 10 10 11 11 12 10 10 10 11 12 14 16 16 17 17 18 18 18 18 18 20 19 17 16 15 15 14 12 10 10 10 9 10 9 9 9
10 10 10 11 10 9 9 10 11 10 9 10 9 8 6 6 8 9 10 11 10 11 12 13 13 14 14 15 16 18 19 25 20 19 26 23 12 9 8 8 7 7 7 7
10 10 10 10 9 8 8 9 8 9 9 8 10 9 6 6 8 10 11 12 13 13 14 14 15 16 16 16 16 18 23 30 53 49 26 32 30 17 12 9 8 7 7 6
8 7 9 8 8 7 8 9 9 9 9 9 10 8 6 9 11 11 12 13 14 15 15 17 19 20 19 19 22 26 26 27 22 32 44 53 53 43 18 12 10 9 8 7
9 8 8 9 9 8 9 9 10 9 10 9 11 9 11 12 13 14 14 14 13 12 14 18 22 24 25 24 25 28 42 30 30 27 24 42 67 76 48 21 13 10 8 7
10 10 10 10 10 11 11 12 12 12 11 10 16 15 15 16 18 18 19 18 16 16 18 19 20 21 24 25 25 23 21 18 16 14 13 16 20 17 18 16 11 9 7 6
12 12 13 12 12 13 13 13 13 13 13 13 13 14 15 17 18 18 18 18 19 19 19 19 19 20 20 18 17 16 16 15 13 12 11 10 9 8 8 7 6 6 6 5
14 13 13 13 13 15 17 18 19 20 19 18 16 16 18 19 18 20 21 21 21 21 22 22 21 20 18 16 15 15 14 14 13 12 11 9 7 6 5 5 5 4 4 4
14 14 14 14 16 18 20 20 19 20 23 22 18 16 21 22 22 22 21 20 22 21 19 18 16 16 16 15 14 13 12 12 9 7 7 9 10 14 14 10 6 4 4 4
13 16 16 18 18 20 24 22 22 22 24 24 24 15 22 20 20 20 18 17 16 15 14 13 11 12 16 16 14 11 9 6 7 10 18 27 30 28 23 19 15 9 9 8
15 15 17 18 21 22 23 21 22 25 26 25 26 23 22 22 21 18 17 16 15 12 9 9 15 19 16 10 10 9 8 12 20 37 42 47 39 33 23 23 17 13 20 42
17 18 21 25 24 23 26 27 31 32 29 26 26 22 25 22 19 18 17 16 11 9 12 18 19 15 10 11 17 30 27 36 43 55 57 56 54 39 28 20 22 36 31 51
21 22 25 29 28 28 27 28 31 30 32 28 26 28 23 19 19 18 19 12 11 20 24 19 14 11 11 17 18 31 38 52 50 56 66 74 75 51 27 24 30 47 46 45
24 25 25 29 31 30 28 30 30 30 30 34 30 24 20 20 21 22 12 17 21 22 22 16 11 11 17 20 24 17 25 42 60 56 52 61 65 44 31 37 42 44 42 48
30 30 28 28 30 30 31 32 31 30 34 35 28 25 23 25 27 13 14 18 21 23 17 12 13 16 13 10 15 20 25 28 50 77 52 63 58 50 36 42 47 41 44 45
37 34 34 33 34 32 39 35 33 31 34 36 31 28 28 28 22 14 28 26 25 18 12 10 10 9 8 9 14 22 24 22 48 75 71 69 79 61 44 44 36 34 31 37
41 42 43 44 39 33 42 40 39 36 36 36 34 32 27 20 18 18 28 30 23 12 12 12 27 39 42 51 44 29 23 20 17 30 71 66 76 74 54 49 46 32 28 32
48 47 49 55 47 38 47 48 45 43 38 35 34 25 26 19 16 18 19 30 16 11 14 25 39 53 63 78 93 99 99 93 82 31 47 60 72 84 59 56 45 40 29 34
54 50 51 61 53 40 55 58 52 48 45 44 24 23 24 16 21 26 34 18 12 20 36 53 63 67 70 74 92 92 94 97 100 99 27 48 57 78 63 40 36 38 25 44
59 58 60 63 57 53 63 62 66 61 51 29 24 25 16 18 18 31 25 15 23 45 60 61 38 26 44 79 100 99 82 98 100 100 57 22 46 78 63 42 36 32 32 38
62 64 75 71 57 82 78 69 68 55 41 28 32 14 17 17 27 33 14 13 35 63 46 37 34 33 33 51 85 76 100 98 96 94 43 20 41 61 46 37 32 23 26 79
73 89 93 67 69 91 81 78 69 60 37 42 30 15 16 22 40 21 13 33 59 34 41 37 36 41 51 52 44 99 91 84 82 43 19 25 38 45 36 27 26 20 32 98
86 92 96 66 83 73 75 73 70 49 46 56 26 15 16 31 34 14 26 58 29 30 39 41 49 95 100 96 82 63 40 22 17 17 21 23 25 30 26 25 20 23 96 100
88 99 82 74 79 69 74 72 58 47 55 61 18 15 19 41 22 17 54 38 27 33 39 39 37 49 49 46 35 26 22 19 16 16 17 18 21 22 22 22 20 90 98 100
Wind_Speed
7 8 9 9 9 10 12 13 13 18 22 23 25 27 27 28 33 34 34 35 37 37 39 41 45 45 39 38 37 38 38 37 38 43 43 42 41 41 40 38 36 39 45 49
7 7 8 11 12 13 15 17 18 21 24 28 29 33 35 36 37 40 42 42 42 43 43 45 41 39 38 41 39 39 42 41 45 47 50 51 51 50 49 49 45 41 37 41
5 6 10 13 15 17 20 22 25 26 27 32 34 39 39 41 41 41 42 44 45 45 45 43 42 42 43 42 43 43 44 47 50 52 54 54 52 53 54 52 52 53 49 42
6 9 12 16 19 21 24 27 30 32 32 32 36 40 42 42 43 42 43 45 45 46 45 46 47 48 49 49 48 49 50 52 53 52 57 62 60 59 58 58 57 55 55 54
9 13 15 20 23 25 27 29 32 33 34 34 36 40 44 44 44 45 46 49 50 52 55 55 55 54 53 52 52 53 55 55 58 61 58 64 68 66 65 66 64 64 61 57
12 15 19 24 28 28 28 29 33 33 34 36 37 42 46 47 48 50 52 53 56 59 60 60 57 56 57 58 59 59 61 64 64 66 70 69 74 76 74 73 73 70 69 65
16 19 22 24 28 30 31 33 34 38 39 41 42 48 48 51 52 53 56 59 62 65 65 64 63 61 61 63 63 65 70 72 74 75 76 79 79 81 83 84 81 77 74 72
18 20 23 26 29 32 34 35 38 41 43 45 43 49 51 51 55 57 60 62 66 67 68 68 68 68 67 68 69 72 72 74 74 75 77 82 85 87 88 88 86 84 84 83
21 23 26 31 33 36 39 39 41 44 46 48 49 51 54 56 59 62 64 67 69 68 69 69 70 73 75 79 81 82 82 82 81 83 83 83 83 83 83 83 86 86 86 87
24 26 30 34 37 38 38 39 42 46 49 53 54 56 55 60 65 66 69 70 70 70 70 70 71 72 76 77 79 79 80 82 85 89 91 90 89 89 91 92 89 85 82 85
27 29 32 35 36 38 41 43 46 48 49 54 57 58 56 60 63 65 68 66 65 69 72 74 74 75 81 85 88 89 89 89 86 81 77 73 69 65 60 59 60 64 65 72
32 33 35 37 41 41 42 45 47 50 52 56 60 60 58 59 62 66 65 65 69 73 77 81 87 88 85 85 86 87 85 80 73 68 63 60 57 54 53 52 51 50 55 59
36 37 39 42 44 44 43 45 49 51 53 54 60 60 56 59 59 61 66 69 71 77 83 84 82 82 82 81 78 75 69 61 60 60 58 54 52 53 51 52 51 45 50 53
39 40 41 44 46 47 46 47 49 53 55 58 57 64 57 62 62 64 66 73 77 81 81 80 78 78 77 72 66 63 59 56 55 56 54 52 52 51 52 51 47 44 45 48
41 42 44 45 47 47 47 48 51 54 56 59 57 64 63 63 66 69 72 74 77 76 77 76 75 73 70 64 61 60 57 56 56 56 52 48 47 50 47 48 43 39 38 45
42 45 46 45 47 49 48 48 53 55 58 60 63 61 65 66 72 75 74 74 75 77 77 76 73 70 68 64 64 60 58 56 55 52 52 53 48 47 44 43 42 42 38 38
44 47 48 49 52 52 48 50 55 56 58 60 64 65 65 69 74 75 77 78 79 78 76 74 72 69 66 63 63 62 60 56 55 53 44 46 46 46 44 39 39 41 41 35
47 49 50 54 56 55 51 54 56 55 58 61 65 66 70 73 74 76 74 78 78 76 74 71 68 66 62 63 63 62 60 57 53 51 46 44 45 43 39 36 37 37 38 35
48 49 53 57 57 55 50 53 53 55 54 61 65 68 71 75 76 72 74 76 78 73 72 66 64 65 65 67 64 62 59 56 55 50 45 46 45 42 40 39 38 35 34 33
48 49 53 57 59 57 52 54 57 59 59 63 66 68 72 76 80 77 76 75 72 71 65 64 68 71 70 66 64 61 58 57 55 48 45 44 43 42 39 39 39 38 31 29
50 52 54 58 60 56 52 56 57 60 65 65 67 68 74 76 78 81 81 74 72 68 67 70 69 64 59 59 58 52 49 50 51 48 44 43 42 41 39 35 36 36 27 27
50 51 56 58 61 56 55 56 60 64 64 65 66 71 73 76 76 78 77 73 70 71 70 64 64 61 61 58 53 54 52 49 45 42 39 39 41 38 35 35 33 31 24 26
51 49 55 55 58 51 56 58 61 62 63 64 68 71 77 78 75 78 72 69 69 70 65 65 63 58 54 55 52 51 51 46 39 35 33 32 35 36 32 31 29 24 22 24
52 51 56 60 50 52 58 59 62 62 62 65 70 73 76 75 75 73 71 69 68 64 63 59 57 54 50 47 42 43 38 34 31 32 28 27 27 33 30 26 23 19 20 20
53 54 60 57 51 53 54 59 61 59 62 68 69 72 73 73 74 70 66 67 62 61 56 53 52 48 42 38 36 35 33 31 28 24 20 20 19 23 22 19 18 18 20 17
50 57 58 55 52 52 54 59 57 59 64 64 66 68 70 71 69 63 65 59 59 56 50 48 46 43 40 38 34 30 27 24 19 12 9 8 12 15 14 16 17 19 16 22
Wind_Direction
261 271 286 278 286 285 294 298 295 294 299 299 296 295 289 284 286 287 285 284 286 287 290 292 292 292 285 281 281 279 274 269 270 269 268 267 265 265 267 264 265 263 264 263
262 276 285 287 292 298 295 296 298 296 297 301 299 300 299 294 290 290 293 293 292 294 292 293 290 285 286 284 283 279 279 276 272 269 268 271 271 269 270 266 266 263 264 266
262 274 281 292 297 298 302 309 305 304 302 302 301 300 298 295 294 295 295 294 293 291 289 287 287 287 286 285 282 281 280 277 276 275 274 272 269 268 265 265 267 266 264 259
283 289 297 299 303 308 307 307 307 307 307 305 303 304 302 305 305 305 303 300 298 298 297 294 292 289 289 287 283 283 283 279 278 272 271 273 275 272 268 266 264 263 263 264
299 301 306 305 306 308 310 311 309 308 308 311 305 304 306 306 306 305 307 305 305 303 302 299 298 295 292 287 284 283 283 281 276 278 274 270 272 273 272 273 270 268 264 263
301 309 311 310 311 312 311 309 309 312 313 310 308 305 308 307 309 309 307 305 305 304 302 300 297 295 292 290 287 282 280 278 276 273 272 269 267 269 272 271 270 268 267 264
315 317 313 310 310 313 313 313 314 314 315 313 313 307 310 309 310 309 307 305 303 302 302 301 300 298 293 290 285 280 276 276 274 273 269 267 265 264 266 268 268 268 265 264
311 315 313 311 315 317 317 316 316 315 314 312 312 309 310 311 312 312 310 307 305 304 304 304 303 301 299 295 292 288 284 281 277 273 268 265 264 263 262 262 263 265 267 266
305 311 314 317 319 319 319 318 314 311 307 306 307 307 309 312 312 309 309 307 306 308 307 306 304 302 300 297 295 294 293 289 285 282 280 277 274 272 270 266 264 262 261 261
314 318 316 316 316 315 314 312 312 311 309 307 309 307 313 313 311 312 310 309 311 310 307 304 301 297 296 295 294 292 291 289 288 287 287 286 285 284 282 279 276 272 267 263
311 311 310 309 310 311 313 311 310 309 308 310 310 309 315 312 312 309 308 310 310 306 305 304 301 297 295 297 297 296 295 293 292 291 289 288 287 288 288 283 276 269 257 250
305 306 306 308 308 309 312 311 311 311 311 311 309 312 310 312 309 309 309 309 308 306 303 301 301 303 302 299 297 296 296 296 295 292 290 290 291 290 288 286 281 273 266 252
301 303 306 306 306 307 310 310 311 309 309 311 308 312 314 309 311 308 307 308 306 305 305 305 304 302 300 299 300 300 301 298 294 290 290 290 287 288 288 287 283 272 264 260
302 304 306 306 305 307 311 312 312 311 312 310 315 309 313 312 311 309 310 310 309 308 307 305 304 301 300 301 302 301 303 301 297 293 289 285 284 286 290 292 280 273 266 259
301 304 305 305 305 307 309 310 309 309 309 309 311 311 312 312 312 314 314 311 311 309 307 306 304 302 301 302 300 299 299 296 296 292 288 287 283 284 287 295 281 271 270 256
301 303 304 303 304 304 305 309 308 309 309 309 310 313 313 316 316 316 316 315 311 309 306 305 304 303 303 304 300 299 299 299 294 295 284 281 284 281 283 292 284 268 274 274
302 304 306 307 305 304 308 309 308 311 310 310 312 315 315 316 315 316 317 315 313 311 309 307 305 302 303 302 297 296 295 296 293 291 288 284 276 275 278 285 291 277 273 274
303 306 308 308 308 308 314 311 310 312 312 312 313 314 316 315 315 319 318 315 314 311 310 307 305 306 305 302 298 295 293 292 289 286 283 280 278 271 274 281 291 296 275 275
301 306 308 308 307 309 312 310 311 311 313 310 313 314 316 315 315 321 318 316 314 313 312 309 309 309 307 305 303 300 299 296 292 287 280 271 275 268 269 277 287 295 279 275
299 305 308 306 306 308 313 308 310 311 315 315 315 315 315 315 317 321 320 316 314 314 313 310 309 309 307 305 303 302 300 296 293 288 279 269 267 267 268 274 281 292 283 274
295 300 305 305 304 309 309 308 311 313 316 317 315 316 317 319 321 323 321 320 320 319 315 312 311 311 310 307 305 306 305 298 292 287 281 270 261 263 264 272 279 289 278 271
294 302 304 305 303 312 311 312 311 313 314 314 315 317 318 320 324 322 323 323 320 319 318 316 316 314 311 307 304 306 304 300 290 284 283 274 257 257 263 269 276 287 263 271
292 301 303 300 301 310 309 312 310 312 313 313 317 317 319 323 325 324 324 323 322 323 323 322 319 315 312 306 301 302 305 299 291 283 281 276 258 251 257 265 273 275 258 259
291 300 299 295 303 303 307 308 310 313 312 316 316 317 323 325 325 326 326 326 327 328 326 323 323 320 318 313 308 308 309 304 294 289 285 275 257 242 253 260 271 253 251 251
298 301 294 298 304 304 307 307 310 309 308 312 315 321 325 326 326 327 328 330 331 330 330 330 331 331 332 328 322 317 316 314 311 302 288 270 239 234 242 255 246 228 235 231
300 294 290 299 301 305 305 307 307 308 309 313 316 322 326 326 328 328 332 334 333 334 339 340 339 338 339 338 337 337 335 333 331 321 302 241 215 222 235 231 212 214 220 184